Location: Most
(50.5330°N, 13.6500°E)
Time: 02:49:08
(UTC+01:00)

ISS - Visible Passes

Search period start: 22 January 2019 00:00
Search period end: 01 February 2019 00:00
Orbit: 404 x 410 km, 51.6° (Epoch: 22 January)

Date Brightness Start Highest point End Pass type
(mag) Time Alt. Az. Time Alt. Az. Time Alt. Az.
23 Jan -1.8 18:39:22 10° S 18:41:05 18° SSE 18:41:05 18° SSE visible
24 Jan -1.5 17:49:12 10° SSE 17:50:43 13° SE 17:52:04 11° ESE visible
24 Jan -1.5 19:23:28 10° SW 19:24:48 22° SW 19:24:48 22° SW visible
25 Jan -3.0 18:32:22 10° SW 18:35:25 35° SSE 18:35:43 35° SE visible
26 Jan -2.2 17:41:30 10° SSW 17:44:13 24° SE 17:46:33 12° E visible
26 Jan -2.4 19:17:08 10° WSW 19:19:16 37° WSW 19:19:16 37° WSW visible
27 Jan -3.7 18:25:50 10° WSW 18:29:05 61° SSE 18:30:03 40° E visible
27 Jan -0.4 20:02:21 10° W 20:02:46 13° W 20:02:46 13° W visible
28 Jan -3.1 17:34:37 10° SW 17:37:46 42° SSE 17:40:47 11° E visible
28 Jan -3.0 19:10:55 10° W 19:13:30 51° W 19:13:30 51° W visible
29 Jan -3.9 18:19:29 10° WSW 18:22:48 89° NNW 18:24:13 32° ENE visible
29 Jan -0.7 19:56:07 10° W 19:56:55 16° WNW 19:56:55 16° WNW visible
30 Jan -3.7 17:28:05 10° WSW 17:31:23 71° SSE 17:34:42 10° ENE visible
30 Jan -3.4 19:04:40 10° W 19:07:36 61° NW 19:07:36 61° NW visible
31 Jan -3.8 18:13:12 10° W 18:16:31 73° N 18:18:17 25° ENE visible
31 Jan -1.1 19:49:50 10° WNW 19:50:59 20° WNW 19:50:59 20° WNW visible
